Time,TemperatureF,DewpointF,PressureIn,WindDirection,WindDirectionDegrees,WindSpeedMPH,WindSpeedGustMPH,Humidity,HourlyPrecipIn,Conditions,Clouds,dailyrainin,SoftwareType,DateUTC
2013-01-21 00:04:00,27.0,13.0,30.18,West,264,1.0,3.0,54,0.00,,,0.03,,2013-01-21 05:04:00,
2013-01-21 00:12:00,27.0,13.0,30.18,West,264,1.0,3.0,54,0.00,,,0.03,,2013-01-21 05:12:00,
2013-01-21 00:22:00,27.0,13.0,30.18,West,271,1.0,3.0,55,0.00,,,0.03,,2013-01-21 05:22:00,
2013-01-21 00:34:00,27.0,13.0,30.18,WNW,285,2.0,6.0,54,0.00,,,0.03,,2013-01-21 05:34:00,
2013-01-21 00:42:00,27.0,13.0,30.18,WNW,285,2.0,6.0,54,0.00,,,0.03,,2013-01-21 05:42:00,
2013-01-21 00:53:00,27.0,12.0,30.18,West,269,2.0,7.0,52,0.00,,,0.03,,2013-01-21 05:53:00,
2013-01-21 01:03:00,27.0,12.0,30.18,West,269,2.0,7.0,52,0.00,,,0.03,,2013-01-21 06:03:00,
2013-01-21 01:13:00,27.0,12.0,30.18,West,269,2.0,7.0,52,0.00,,,0.03,,2013-01-21 06:13:00,
2013-01-21 01:23:00,26.0,10.0,30.20,ENE,77,1.0,5.0,51,0.00,,,0.03,,2013-01-21 06:23:00,
2013-01-21 01:33:00,26.0,10.0,30.21,West,262,2.0,9.0,50,0.00,,,0.03,,2013-01-21 06:33:00,
2013-01-21 01:43:00,26.0,10.0,30.21,West,262,2.0,9.0,50,0.00,,,0.03,,2013-01-21 06:43:00,
2013-01-21 01:53:00,26.0,10.0,30.22,WNW,290,1.0,3.0,50,0.00,,,0.03,,2013-01-21 06:53:00,
2013-01-21 02:03:00,25.0,9.0,30.22,West,281,2.0,10.0,50,0.00,,,0.03,,2013-01-21 07:03:00,
2013-01-21 02:13:00,25.0,9.0,30.22,West,281,2.0,10.0,50,0.00,,,0.03,,2013-01-21 07:13:00,
2013-01-21 02:23:00,25.0,7.0,30.24,WNW,284,3.0,12.0,45,0.00,,,0.03,,2013-01-21 07:23:00,
2013-01-21 02:33:00,25.0,8.0,30.24,East,100,2.0,7.0,47,0.00,,,0.03,,2013-01-21 07:33:00,
2013-01-21 02:42:00,25.0,8.0,30.24,East,100,2.0,7.0,47,0.00,,,0.03,,2013-01-21 07:42:00,
2013-01-21 02:53:00,24.0,8.0,30.25,West,263,0.0,6.0,49,0.00,,,0.03,,2013-01-21 07:53:00,
2013-01-21 03:03:00,24.0,8.0,30.25,West,274,1.0,3.0,49,0.00,,,0.03,,2013-01-21 08:03:00,
2013-01-21 03:14:00,24.0,8.0,30.25,West,274,1.0,3.0,49,0.00,,,0.03,,2013-01-21 08:14:00,
2013-01-21 03:23:00,23.0,7.0,30.27,WSW,253,1.0,6.0,50,0.00,,,0.03,,2013-01-21 08:23:00,
2013-01-21 03:33:00,23.0,5.0,30.27,WNW,302,1.0,5.0,46,0.00,,,0.03,,2013-01-21 08:33:00,
2013-01-21 03:42:00,23.0,5.0,30.27,WNW,302,1.0,5.0,46,0.00,,,0.03,,2013-01-21 08:42:00,
2013-01-21 03:53:00,23.0,3.0,30.27,WSW,242,3.0,9.0,42,0.00,,,0.03,,2013-01-21 08:53:00,
2013-01-21 04:03:00,23.0,2.0,30.27,WNW,283,2.0,5.0,40,0.00,,,0.03,,2013-01-21 09:03:00,
2013-01-21 04:12:00,23.0,2.0,30.27,WNW,283,2.0,5.0,40,0.00,,,0.03,,2013-01-21 09:12:00,
2013-01-21 04:23:00,22.0,2.0,30.27,West,281,1.0,7.0,41,0.00,,,0.03,,2013-01-21 09:23:00,
2013-01-21 04:33:00,22.0,3.0,30.28,West,259,2.0,7.0,43,0.00,,,0.03,,2013-01-21 09:33:00,
2013-01-21 04:42:00,22.0,3.0,30.28,West,259,2.0,7.0,43,0.00,,,0.03,,2013-01-21 09:42:00,
2013-01-21 04:53:00,22.0,3.0,30.29,SSW,212,2.0,7.0,43,0.00,,,0.03,,2013-01-21 09:53:00,
2013-01-21 05:02:00,21.0,2.0,30.29,WSW,253,1.0,6.0,42,0.00,,,0.03,,2013-01-21 10:02:00,
2013-01-21 05:12:00,21.0,2.0,30.29,WSW,253,1.0,6.0,42,0.00,,,0.03,,2013-01-21 10:12:00,
2013-01-21 05:22:00,21.0,2.0,30.29,West,276,1.0,5.0,43,0.00,,,0.03,,2013-01-21 10:22:00,
2013-01-21 05:33:00,21.0,2.0,30.30,West,259,1.0,3.0,43,0.00,,,0.03,,2013-01-21 10:33:00,
2013-01-21 05:43:00,21.0,2.0,30.30,West,259,1.0,3.0,43,0.00,,,0.03,,2013-01-21 10:43:00,
2013-01-21 05:53:00,20.0,1.0,30.30,West,262,1.0,2.0,43,0.00,,,0.03,,2013-01-21 10:53:00,
2013-01-21 06:03:00,20.0,2.0,30.30,West,269,0.0,2.0,45,0.00,,,0.03,,2013-01-21 11:03:00,
2013-01-21 06:13:00,20.0,2.0,30.30,West,269,0.0,2.0,45,0.00,,,0.03,,2013-01-21 11:13:00,
2013-01-21 06:23:00,20.0,4.0,30.31,West,262,0.0,1.0,49,0.00,,,0.03,,2013-01-21 11:23:00,
2013-01-21 06:33:00,19.0,4.0,30.32,WSW,258,0.0,1.0,51,0.00,,,0.03,,2013-01-21 11:33:00,
2013-01-21 06:43:00,19.0,4.0,30.32,WSW,258,0.0,1.0,51,0.00,,,0.03,,2013-01-21 11:43:00,
2013-01-21 06:53:00,19.0,4.0,30.32,WSW,256,0.0,2.0,51,0.00,,,0.03,,2013-01-21 11:53:00,
2013-01-21 07:02:00,19.0,4.0,30.33,West,273,0.0,1.0,52,0.00,,,0.03,,2013-01-21 12:02:00,
2013-01-21 07:12:00,19.0,4.0,30.33,West,273,0.0,1.0,52,0.00,,,0.03,,2013-01-21 12:12:00,
2013-01-21 07:22:00,19.0,3.0,30.33,WSW,258,0.0,1.0,50,0.00,,,0.03,,2013-01-21 12:22:00,
2013-01-21 07:33:00,19.0,3.0,30.34,WSW,251,0.0,1.0,50,0.00,,,0.03,,2013-01-21 12:33:00,
2013-01-21 07:42:00,19.0,3.0,30.34,WSW,251,0.0,1.0,50,0.00,,,0.03,,2013-01-21 12:42:00,
2013-01-21 07:53:00,19.0,4.0,30.35,WSW,256,0.0,1.0,52,0.00,,,0.03,,2013-01-21 12:53:00,
2013-01-21 08:03:00,19.0,4.0,30.35,WSW,256,0.0,0.0,52,0.00,,,0.03,,2013-01-21 13:03:00,
2013-01-21 08:13:00,19.0,4.0,30.35,WSW,256,0.0,0.0,52,0.00,,,0.03,,2013-01-21 13:13:00,
2013-01-21 08:23:00,19.0,6.0,30.35,WSW,256,0.0,0.0,57,0.00,,,0.03,,2013-01-21 13:23:00,
2013-01-21 08:33:00,19.0,6.0,30.35,WSW,257,0.0,1.0,56,0.00,,,0.03,,2013-01-21 13:33:00,
2013-01-21 08:43:00,19.0,6.0,30.35,WSW,257,0.0,1.0,56,0.00,,,0.03,,2013-01-21 13:43:00,
2013-01-21 08:54:00,20.0,5.0,30.35,ENE,76,0.0,2.0,51,0.00,,,0.02,,2013-01-21 13:54:00,
2013-01-21 09:03:00,21.0,6.0,30.34,West,281,1.0,3.0,51,0.00,,,0.02,,2013-01-21 14:03:00,
2013-01-21 09:12:00,21.0,6.0,30.34,West,281,1.0,3.0,51,0.00,,,0.02,,2013-01-21 14:12:00,
2013-01-21 09:23:00,21.0,6.0,30.35,West,259,0.0,2.0,51,0.00,,,0.02,,2013-01-21 14:23:00,
2013-01-21 09:32:00,22.0,6.0,30.36,West,276,1.0,2.0,50,0.00,,,0.02,,2013-01-21 14:32:00,
2013-01-21 09:43:00,22.0,6.0,30.36,West,276,1.0,2.0,50,0.00,,,0.02,,2013-01-21 14:43:00,
2013-01-21 09:53:00,22.0,5.0,30.36,West,263,1.0,3.0,47,0.00,,,0.01,,2013-01-21 14:53:00,
2013-01-21 10:03:00,23.0,5.0,30.36,WSW,252,1.0,3.0,46,0.00,,,0.01,,2013-01-21 15:03:00,
2013-01-21 10:13:00,23.0,5.0,30.36,WSW,252,1.0,3.0,46,0.00,,,0.01,,2013-01-21 15:13:00,
2013-01-21 10:23:00,24.0,7.0,30.37,West,267,1.0,3.0,47,0.00,,,0.01,,2013-01-21 15:23:00,
2013-01-21 10:33:00,24.0,6.0,30.37,WNW,288,2.0,3.0,45,0.00,,,0.01,,2013-01-21 15:33:00,
2013-01-21 10:43:00,24.0,6.0,30.37,WNW,288,2.0,3.0,45,0.00,,,0.01,,2013-01-21 15:43:00,
2013-01-21 10:53:00,25.0,7.0,30.36,WNW,286,0.0,2.0,45,0.00,,,0.01,,2013-01-21 15:53:00,
2013-01-21 11:04:00,26.0,7.0,30.35,West,273,1.0,3.0,43,0.00,,,0.01,,2013-01-21 16:04:00,
2013-01-21 11:13:00,26.0,7.0,30.35,West,273,1.0,3.0,43,0.00,,,0.01,,2013-01-21 16:13:00,
2013-01-21 11:23:00,26.0,7.0,30.34,WSW,252,1.0,5.0,44,0.00,,,0.01,,2013-01-21 16:23:00,
2013-01-21 11:33:00,25.0,6.0,30.33,West,276,1.0,3.0,44,0.00,,,0.01,,2013-01-21 16:33:00,
2013-01-21 11:43:00,25.0,6.0,30.33,West,276,1.0,3.0,44,0.00,,,0.01,,2013-01-21 16:43:00,
2013-01-21 11:53:00,25.0,6.0,30.32,West,281,2.0,5.0,44,0.00,,,0.01,,2013-01-21 16:53:00,
2013-01-21 12:12:00,26.0,7.0,30.32,West,273,2.0,3.0,43,0.00,,,0.01,,2013-01-21 17:12:00,
2013-01-21 12:23:00,26.0,8.0,30.30,WSW,250,1.0,3.0,45,0.00,,,0.00,,2013-01-21 17:23:00,
2013-01-21 12:33:00,27.0,8.0,30.29,WSW,257,0.0,2.0,44,0.00,,,0.00,,2013-01-21 17:33:00,
2013-01-21 12:43:00,27.0,8.0,30.29,WSW,257,0.0,2.0,44,0.00,,,0.00,,2013-01-21 17:43:00,
2013-01-21 12:53:00,26.0,7.0,30.28,West,262,1.0,2.0,43,0.00,,,0.00,,2013-01-21 17:53:00,
2013-01-21 13:03:00,27.0,8.0,30.28,West,281,1.0,3.0,44,0.00,,,0.00,,2013-01-21 18:03:00,
2013-01-21 13:12:00,27.0,8.0,30.28,West,281,1.0,3.0,44,0.00,,,0.00,,2013-01-21 18:12:00,
2013-01-21 13:23:00,27.0,8.0,30.27,West,276,1.0,2.0,43,0.00,,,0.00,,2013-01-21 18:23:00,
2013-01-21 13:33:00,27.0,8.0,30.27,WNW,291,2.0,3.0,43,0.00,,,0.00,,2013-01-21 18:33:00,
2013-01-21 13:43:00,27.0,8.0,30.27,WNW,291,2.0,3.0,43,0.00,,,0.00,,2013-01-21 18:43:00,
2013-01-21 13:53:00,27.0,8.0,30.27,WSW,252,0.0,3.0,44,0.00,,,0.00,,2013-01-21 18:53:00,
2013-01-21 14:03:00,27.0,8.0,30.26,WSW,249,1.0,3.0,43,0.00,,,0.00,,2013-01-21 19:03:00,
2013-01-21 14:12:00,27.0,8.0,30.26,WSW,249,1.0,3.0,43,0.00,,,0.00,,2013-01-21 19:12:00,
2013-01-21 14:22:00,27.0,9.0,30.26,West,260,1.0,3.0,45,0.00,,,0.00,,2013-01-21 19:22:00,
2013-01-21 14:33:00,27.0,9.0,30.26,West,263,1.0,2.0,45,0.00,,,0.00,,2013-01-21 19:33:00,
2013-01-21 14:43:00,27.0,9.0,30.26,West,263,1.0,2.0,45,0.00,,,0.00,,2013-01-21 19:43:00,
2013-01-21 14:53:00,27.0,9.0,30.26,SE,139,0.0,3.0,45,0.00,,,0.00,,2013-01-21 19:53:00,
2013-01-21 15:12:00,27.0,9.0,30.26,West,264,1.0,3.0,45,0.00,,,0.00,,2013-01-21 20:12:00,
2013-01-21 15:23:00,27.0,8.0,30.25,WSW,250,1.0,2.0,44,0.00,,,0.00,,2013-01-21 20:23:00,
2013-01-21 15:33:00,27.0,9.0,30.24,WSW,243,0.0,2.0,45,0.00,,,0.00,,2013-01-21 20:33:00,
2013-01-21 15:43:00,27.0,9.0,30.24,WSW,243,0.0,2.0,45,0.00,,,0.00,,2013-01-21 20:43:00,
2013-01-21 15:53:00,27.0,9.0,30.24,ENE,68,0.0,3.0,46,0.00,,,0.00,,2013-01-21 20:53:00,
2013-01-21 16:04:00,27.0,9.0,30.24,West,262,1.0,2.0,46,0.00,,,0.00,,2013-01-21 21:04:00,
2013-01-21 16:12:00,27.0,9.0,30.24,West,262,1.0,2.0,46,0.00,,,0.00,,2013-01-21 21:12:00,
2013-01-21 16:23:00,26.0,9.0,30.23,WSW,256,1.0,3.0,47,0.00,,,0.00,,2013-01-21 21:23:00,
2013-01-21 16:33:00,26.0,9.0,30.23,West,277,0.0,1.0,48,0.00,,,0.00,,2013-01-21 21:33:00,
2013-01-21 16:43:00,26.0,9.0,30.23,West,277,0.0,1.0,48,0.00,,,0.00,,2013-01-21 21:43:00,
2013-01-21 16:54:00,26.0,10.0,30.22,SW,231,0.0,5.0,50,0.00,,,0.00,,2013-01-21 21:54:00,
2013-01-21 17:03:00,26.0,10.0,30.22,WSW,245,1.0,2.0,51,0.00,,,0.00,,2013-01-21 22:03:00,
2013-01-21 17:13:00,26.0,10.0,30.22,WSW,245,1.0,2.0,51,0.00,,,0.00,,2013-01-21 22:13:00,
2013-01-21 17:23:00,26.0,11.0,30.23,West,264,0.0,1.0,53,0.00,,,0.00,,2013-01-21 22:23:00,
2013-01-21 17:33:00,26.0,11.0,30.22,West,266,0.0,1.0,53,0.00,,,0.00,,2013-01-21 22:33:00,
2013-01-21 17:43:00,26.0,11.0,30.22,West,266,0.0,1.0,53,0.00,,,0.00,,2013-01-21 22:43:00,
2013-01-21 17:53:00,25.0,11.0,30.22,WNW,300,0.0,0.0,54,0.00,,,0.00,,2013-01-21 22:53:00,
2013-01-21 18:03:00,25.0,12.0,30.22,West,260,1.0,3.0,58,0.00,,,0.00,,2013-01-21 23:03:00,
2013-01-21 18:13:00,25.0,12.0,30.22,West,260,1.0,3.0,58,0.00,,,0.00,,2013-01-21 23:13:00,
2013-01-21 18:23:00,25.0,15.0,30.23,SW,219,1.0,3.0,64,0.00,,,0.00,,2013-01-21 23:23:00,
2013-01-21 18:33:00,25.0,16.0,30.23,SW,226,0.0,3.0,68,0.00,,,0.00,,2013-01-21 23:33:00,
2013-01-21 18:42:00,25.0,16.0,30.23,SW,226,0.0,3.0,68,0.00,,,0.00,,2013-01-21 23:42:00,
2013-01-21 18:53:00,24.0,16.0,30.23,SW,232,0.0,1.0,71,0.00,,,0.00,,2013-01-21 23:53:00,
2013-01-21 19:03:00,24.0,17.0,30.24,WNW,283,0.0,1.0,74,0.00,,,0.00,,2013-01-22 00:03:00,
2013-01-21 19:12:00,24.0,17.0,30.24,WNW,283,0.0,1.0,74,0.00,,,0.00,,2013-01-22 00:12:00,
2013-01-21 19:23:00,24.0,19.0,30.24,WNW,283,0.0,1.0,81,0.00,,,0.00,,2013-01-22 00:23:00,
2013-01-21 19:33:00,23.0,19.0,30.23,East,86,0.0,1.0,83,0.00,,,0.00,,2013-01-22 00:33:00,
2013-01-21 19:43:00,23.0,19.0,30.23,East,86,0.0,1.0,83,0.00,,,0.00,,2013-01-22 00:43:00,
2013-01-21 19:53:00,23.0,19.0,30.23,East,85,0.0,0.0,86,0.00,,,0.00,,2013-01-22 00:53:00,
2013-01-21 20:02:00,23.0,19.0,30.22,East,85,0.0,0.0,86,0.00,,,0.00,,2013-01-22 01:02:00,
2013-01-21 20:12:00,23.0,19.0,30.22,East,85,0.0,0.0,86,0.00,,,0.00,,2013-01-22 01:12:00,
2013-01-21 20:23:00,23.0,20.0,30.22,East,85,0.0,0.0,88,0.00,,,0.00,,2013-01-22 01:23:00,
2013-01-21 20:33:00,22.0,19.0,30.22,East,84,0.0,0.0,88,0.00,,,0.00,,2013-01-22 01:33:00,
2013-01-21 20:43:00,22.0,19.0,30.22,East,84,0.0,0.0,88,0.00,,,0.00,,2013-01-22 01:43:00,
2013-01-21 20:53:00,22.0,19.0,30.21,East,85,0.0,0.0,89,0.00,,,0.00,,2013-01-22 01:53:00,
2013-01-21 21:02:00,22.0,19.0,30.21,East,85,0.0,0.0,89,0.00,,,0.00,,2013-01-22 02:02:00,
2013-01-21 21:12:00,22.0,19.0,30.21,East,85,0.0,0.0,89,0.00,,,0.00,,2013-01-22 02:12:00,
2013-01-21 21:23:00,22.0,20.0,30.20,East,85,0.0,0.0,90,0.00,,,0.00,,2013-01-22 02:23:00,
2013-01-21 21:32:00,22.0,20.0,30.20,East,85,0.0,1.0,90,0.00,,,0.00,,2013-01-22 02:32:00,
2013-01-21 21:43:00,22.0,20.0,30.20,East,85,0.0,1.0,90,0.00,,,0.00,,2013-01-22 02:43:00,
2013-01-21 21:53:00,22.0,20.0,30.19,East,85,0.0,1.0,91,0.00,,,0.00,,2013-01-22 02:53:00,
2013-01-21 22:03:00,22.0,20.0,30.17,East,85,0.0,1.0,91,0.00,,,0.00,,2013-01-22 03:03:00,
2013-01-21 22:12:00,22.0,20.0,30.17,East,85,0.0,1.0,91,0.00,,,0.00,,2013-01-22 03:12:00,
2013-01-21 22:22:00,21.0,19.0,30.16,East,85,0.0,0.0,91,0.00,,,0.00,,2013-01-22 03:22:00,
2013-01-21 22:32:00,21.0,19.0,30.16,East,84,0.0,0.0,92,0.00,,,0.00,,2013-01-22 03:32:00,
2013-01-21 22:42:00,21.0,19.0,30.16,East,84,0.0,0.0,92,0.00,,,0.00,,2013-01-22 03:42:00,
2013-01-21 22:53:00,21.0,19.0,30.15,East,85,0.0,1.0,92,0.00,,,0.00,,2013-01-22 03:53:00,
2013-01-21 23:03:00,22.0,20.0,30.14,East,84,0.0,0.0,92,0.00,,,0.00,,2013-01-22 04:03:00,
2013-01-21 23:12:00,22.0,20.0,30.14,East,84,0.0,0.0,92,0.00,,,0.00,,2013-01-22 04:12:00,
2013-01-21 23:22:00,22.0,20.0,30.14,East,84,0.0,1.0,91,0.00,,,0.00,,2013-01-22 04:22:00,
2013-01-21 23:33:00,22.0,20.0,30.12,East,85,0.0,0.0,91,0.00,,,0.00,,2013-01-22 04:33:00,
2013-01-21 23:42:00,22.0,20.0,30.12,East,85,0.0,0.0,91,0.00,,,0.00,,2013-01-22 04:42:00,
2013-01-21 23:53:00,21.0,19.0,30.10,NE,50,0.0,0.0,91,0.00,,,0.00,,2013-01-22 04:53:00,